Details From SKBO - Bogota - El Dorado Intl
To SKBG - PALONEGRO
Flight Number -
Tags generated
Created
Modified
Stats Distance 157 nm / 290 km
Max Altitude 13,500 ft / 4,115 m
Waypoints 4
Social Downloads 3
Likes 0
Share VATSIM

Download

Looking for another format? Having issues loading an existing format? Contact us
Advertisement - Login to hide

Notes

Basic altitude profile: - Ascent Rate: 2100ft/min - Ascent Speed: 310kts - Cruise Altitude: 25000ft - Cruise Speed: 420kts - Descent Rate: 1800ft/min - Descent Speed: 250kts Options: - Use NATs: yes - Use PACOTS: yes - Use low airways: yes - Use high airways: yes

Route

SKBO ATORU A567 GALAN SKBG

ID Type Via Altitude Latitude Longitude Leg Dist Tot Dist Heading (true) Name
O SKBO APT - 0 ft / 0 m 4.70159˚ -74.14695˚ - 0 nm - Bogota - El Dorado Intl
ATORU FIX - 13,200 ft / 4,023 m 6.18000˚ -73.58611˚ 94 nm 94 nm 21° / 21° -
GALAN FIX A567 (AWY-LO) 13,500 ft / 4,115 m 6.66611˚ -73.38111˚ 31 nm 126 nm 23° / 23° -
O SKBG APT - 0 ft / 0 m 7.12650˚ -73.18476˚ 30 nm 156 nm 23° / 23° PALONEGRO

Altitude Profile

Advertisement - Login to hide

SKBO

Details ICAO SKBO (BOG)
Name Bogota - El Dorado Intl
Region Colombia
Timezone America/Bogota (UTC-5.0)
Stats Elevation 8,361 ft / 2,548 m (AMSL)
Location 4.701594° -74.146946°
Runways 2
Magnetic Variation 7.268° W

METAR

SKBO 170100Z 26005KT 9000 SCT020 14/11 A3029 RMK HZ

Decode

TAF

Not found

Departure Runways

ID Width Length Bearing (true) Bearing (mag) Surface Threshold Offset Overrun Length
13L 148 ft / 45 m 12,482 ft / 3,804 m 127.21° 134.48° Asphalt 0 ft / 0 m 0 ft / 0 m
13R 148 ft / 45 m 12,494 ft / 3,808 m 127.23° 134.50° Asphalt 0 ft / 0 m 200 ft / 61 m
31L 148 ft / 45 m 12,494 ft / 3,808 m 307.23° 314.50° Asphalt 0 ft / 0 m 190 ft / 58 m
31R 148 ft / 45 m 12,482 ft / 3,804 m 307.21° 314.48° Asphalt 0 ft / 0 m 0 ft / 0 m

SKBG

Details ICAO SKBG (BGA)
Name PALONEGRO
Region Colombia
Timezone America/Bogota (UTC-5.0)
Stats Elevation 3,896 ft / 1,188 m (AMSL)
Location 7.126500° -73.184764°
Runways 1
Magnetic Variation 8.232° W

METAR

SKBG 170100Z 34003KT 9999 FEW018 SCT240 20/20 A2994

Decode

TAF

Not found

Destination Runways

ID Width Length Bearing (true) Bearing (mag) Surface Threshold Offset Overrun Length
16 164 ft / 50 m 7,452 ft / 2,271 m 159.37° 167.60° Asphalt 0 ft / 0 m 0 ft / 0 m
34 164 ft / 50 m 7,452 ft / 2,271 m 339.37° 347.60° Asphalt 0 ft / 0 m 0 ft / 0 m

Approach Navaids

Runway Type Ident Frequency Range Bearing (true) Bearing (mag) Slope Elevation
34 Localiser IBGA 110.70 MHz 18 nm / 33 km 339.37° 347.61° - 3,897 ft / 1,188 m (AMSL)
34 Glidescope IBGA 110.70 MHz 10 nm / 19 km 339.37° 347.61° 3.00° 3,897 ft / 1,188 m (AMSL)
34 DME IBGA 110.70 MHz 18 nm / 33 km - - - 3,897 ft / 1,188 m (AMSL)

Popular Alternatives